Time,TemperatureF,DewpointF,PressureIn,WindDirection,WindDirectionDegrees,WindSpeedMPH,WindSpeedGustMPH,Humidity,HourlyPrecipIn,Conditions,Clouds,dailyrainin,SoftwareType,DateUTC
2013-04-15 00:05:00,61.8,50.0,29.67,South,171,0.0,-999.0,65,-99.99,,,0.00,weatherlink.com 1.10,2013-04-15 05:05:00,
2013-04-15 00:20:00,61.0,50.0,29.70,SSW,210,0.0,-999.0,67,-99.99,,,0.00,weatherlink.com 1.10,2013-04-15 05:20:00,
2013-04-15 00:35:00,60.6,50.0,29.71,SW,232,0.0,-999.0,68,-99.99,,,0.00,weatherlink.com 1.10,2013-04-15 05:35:00,
2013-04-15 00:50:00,60.3,50.0,29.70,SSW,192,0.0,-999.0,69,-99.99,,,0.00,weatherlink.com 1.10,2013-04-15 05:50:00,
2013-04-15 01:05:00,60.2,50.0,29.71,SSW,208,0.0,-999.0,69,-99.99,,,0.00,weatherlink.com 1.10,2013-04-15 06:05:00,
2013-04-15 01:20:00,60.3,50.0,29.71,SSW,209,0.0,-999.0,68,-99.99,,,0.00,weatherlink.com 1.10,2013-04-15 06:20:00,
2013-04-15 01:35:00,60.2,50.0,29.71,SW,217,0.0,-999.0,68,-99.99,,,0.00,weatherlink.com 1.10,2013-04-15 06:35:00,
2013-04-15 01:50:00,59.7,49.0,29.72,WSW,246,0.0,-999.0,69,-99.99,,,0.00,weatherlink.com 1.10,2013-04-15 06:50:00,
2013-04-15 02:05:00,59.0,50.0,29.73,SW,214,0.0,-999.0,72,-99.99,,,0.00,weatherlink.com 1.10,2013-04-15 07:05:00,
2013-04-15 02:50:00,56.4,51.0,29.72,SSW,210,0.0,-999.0,82,-99.99,,,0.02,weatherlink.com 1.10,2013-04-15 07:50:00,
2013-04-15 03:05:00,56.2,52.0,29.72,WSW,246,0.0,-999.0,84,-99.99,,,0.02,weatherlink.com 1.10,2013-04-15 08:05:00,
2013-04-15 03:20:00,56.0,51.0,29.71,SW,221,0.0,-999.0,84,-99.99,,,0.02,weatherlink.com 1.10,2013-04-15 08:20:00,
2013-04-15 03:35:00,55.7,51.0,29.72,SSW,194,0.0,-999.0,84,-99.99,,,0.02,weatherlink.com 1.10,2013-04-15 08:35:00,
2013-04-15 03:50:00,55.9,51.0,29.73,South,188,0.0,-999.0,84,-99.99,,,0.02,weatherlink.com 1.10,2013-04-15 08:50:00,
2013-04-15 04:05:00,55.9,51.0,29.73,SSW,199,0.0,-999.0,84,-99.99,,,0.02,weatherlink.com 1.10,2013-04-15 09:05:00,
2013-04-15 04:20:00,55.8,51.0,29.73,SSW,201,0.0,-999.0,85,-99.99,,,0.02,weatherlink.com 1.10,2013-04-15 09:20:00,
2013-04-15 04:35:00,56.1,51.0,29.74,SW,222,0.0,-999.0,84,-99.99,,,0.02,weatherlink.com 1.10,2013-04-15 09:35:00,
2013-04-15 04:50:00,55.9,51.0,29.74,SW,233,0.0,-999.0,84,-99.99,,,0.02,weatherlink.com 1.10,2013-04-15 09:50:00,
2013-04-15 05:05:00,55.6,51.0,29.75,SSW,199,0.0,-999.0,85,-99.99,,,0.02,weatherlink.com 1.10,2013-04-15 10:05:00,
2013-04-15 05:20:00,55.2,51.0,29.74,South,178,0.0,-999.0,86,-99.99,,,0.02,weatherlink.com 1.10,2013-04-15 10:20:00,
2013-04-15 05:35:00,55.0,52.0,29.75,SSW,212,0.0,-999.0,88,-99.99,,,0.02,weatherlink.com 1.10,2013-04-15 10:35:00,
2013-04-15 05:50:00,55.0,52.0,29.77,SSW,213,0.0,-999.0,88,-99.99,,,0.02,weatherlink.com 1.10,2013-04-15 10:50:00,
2013-04-15 06:05:00,55.2,51.0,29.77,SW,224,0.0,-999.0,87,-99.99,,,0.02,weatherlink.com 1.10,2013-04-15 11:05:00,
2013-04-15 06:20:00,55.1,51.0,29.78,SW,219,0.0,-999.0,87,-99.99,,,0.02,weatherlink.com 1.10,2013-04-15 11:20:00,
2013-04-15 06:35:00,55.1,52.0,29.78,SW,220,0.0,-999.0,88,-99.99,,,0.02,weatherlink.com 1.10,2013-04-15 11:35:00,
2013-04-15 06:50:00,55.1,52.0,29.77,South,181,0.0,-999.0,88,-99.99,,,0.02,weatherlink.com 1.10,2013-04-15 11:50:00,
2013-04-15 07:05:00,55.0,52.0,29.77,South,190,0.0,-999.0,88,-99.99,,,0.02,weatherlink.com 1.10,2013-04-15 12:05:00,
2013-04-15 07:20:00,55.2,52.0,29.78,SSW,202,0.0,-999.0,88,-99.99,,,0.02,weatherlink.com 1.10,2013-04-15 12:20:00,
2013-04-15 07:35:00,55.4,52.0,29.77,SSW,205,0.0,-999.0,87,-99.99,,,0.02,weatherlink.com 1.10,2013-04-15 12:35:00,
2013-04-15 07:50:00,55.4,52.0,29.78,SSW,198,0.0,-999.0,87,-99.99,,,0.02,weatherlink.com 1.10,2013-04-15 12:50:00,
2013-04-15 08:20:00,55.5,52.0,29.77,SW,226,0.0,-999.0,87,-99.99,,,0.02,weatherlink.com 1.10,2013-04-15 13:20:00,
2013-04-15 08:35:00,55.8,52.0,29.77,South,189,0.0,-999.0,87,-99.99,,,0.02,weatherlink.com 1.10,2013-04-15 13:35:00,
2013-04-15 08:50:00,55.9,52.0,29.78,SSW,211,0.0,-999.0,88,-99.99,,,0.02,weatherlink.com 1.10,2013-04-15 13:50:00,
2013-04-15 09:05:00,56.0,53.0,29.78,SSW,211,0.0,-999.0,88,-99.99,,,0.02,weatherlink.com 1.10,2013-04-15 14:05:00,
2013-04-15 09:20:00,56.3,53.0,29.79,SW,216,0.0,-999.0,87,-99.99,,,0.02,weatherlink.com 1.10,2013-04-15 14:20:00,
2013-04-15 09:35:00,56.4,53.0,29.79,SW,219,0.0,-999.0,88,-99.99,,,0.02,weatherlink.com 1.10,2013-04-15 14:35:00,
2013-04-15 09:50:00,56.7,53.0,29.79,SSW,209,0.0,-999.0,88,-99.99,,,0.02,weatherlink.com 1.10,2013-04-15 14:50:00,
2013-04-15 10:05:00,57.4,54.0,29.79,South,175,0.0,-999.0,88,-99.99,,,0.02,weatherlink.com 1.10,2013-04-15 15:05:00,
2013-04-15 10:20:00,57.9,54.0,29.80,SW,225,0.0,-999.0,87,-99.99,,,0.02,weatherlink.com 1.10,2013-04-15 15:20:00,
2013-04-15 10:35:00,58.2,54.0,29.81,SW,236,0.0,-999.0,87,-99.99,,,0.02,weatherlink.com 1.10,2013-04-15 15:35:00,
2013-04-15 10:50:00,58.9,55.0,29.80,SSW,213,0.0,-999.0,86,-99.99,,,0.02,weatherlink.com 1.10,2013-04-15 15:50:00,
2013-04-15 11:05:00,59.3,55.0,29.81,SW,229,0.0,-999.0,85,-99.99,,,0.02,weatherlink.com 1.10,2013-04-15 16:05:00,
2013-04-15 11:20:00,59.7,55.0,29.81,SW,236,0.0,-999.0,85,-99.99,,,0.02,weatherlink.com 1.10,2013-04-15 16:20:00,
2013-04-15 11:35:00,59.9,55.0,29.80,WSW,254,0.0,-999.0,85,-99.99,,,0.02,weatherlink.com 1.10,2013-04-15 16:35:00,
2013-04-15 11:50:00,61.1,57.0,29.79,WSW,240,0.0,-999.0,85,-99.99,,,0.02,weatherlink.com 1.10,2013-04-15 16:50:00,
2013-04-15 12:05:00,62.6,57.0,29.79,WSW,239,0.0,-999.0,81,-99.99,,,0.02,weatherlink.com 1.10,2013-04-15 17:05:00,
2013-04-15 12:20:00,62.9,56.0,29.79,WSW,238,0.0,-999.0,79,-99.99,,,0.02,weatherlink.com 1.10,2013-04-15 17:20:00,
2013-04-15 12:35:00,62.6,56.0,29.80,WSW,244,0.0,-999.0,79,-99.99,,,0.02,weatherlink.com 1.10,2013-04-15 17:35:00,
2013-04-15 12:50:00,62.5,55.0,29.79,SW,228,0.0,-999.0,77,-99.99,,,0.02,weatherlink.com 1.10,2013-04-15 17:50:00,
2013-04-15 13:05:00,62.4,56.0,29.79,WSW,244,0.0,-999.0,79,-99.99,,,0.02,weatherlink.com 1.10,2013-04-15 18:05:00,
2013-04-15 13:20:00,63.1,56.0,29.80,WSW,250,0.0,-999.0,77,-99.99,,,0.02,weatherlink.com 1.10,2013-04-15 18:20:00,
2013-04-15 13:35:00,64.0,54.0,29.80,West,269,0.0,-999.0,70,-99.99,,,0.02,weatherlink.com 1.10,2013-04-15 18:35:00,
2013-04-15 13:50:00,63.6,54.0,29.81,West,275,0.0,-999.0,72,-99.99,,,0.02,weatherlink.com 1.10,2013-04-15 18:50:00,
2013-04-15 14:05:00,62.7,55.0,29.81,West,268,0.0,-999.0,75,-99.99,,,0.02,weatherlink.com 1.10,2013-04-15 19:05:00,
2013-04-15 14:20:00,61.9,55.0,29.82,WSW,257,0.0,-999.0,78,-99.99,,,0.03,weatherlink.com 1.10,2013-04-15 19:20:00,
2013-04-15 14:35:00,60.7,55.0,29.82,West,267,0.0,-999.0,80,-99.99,,,0.04,weatherlink.com 1.10,2013-04-15 19:35:00,
2013-04-15 15:05:00,60.3,55.0,29.84,West,263,0.0,-999.0,82,-99.99,,,0.04,weatherlink.com 1.10,2013-04-15 20:05:00,
2013-04-15 15:20:00,59.1,54.0,29.85,West,274,0.0,-999.0,84,-99.99,,,0.05,weatherlink.com 1.10,2013-04-15 20:20:00,
2013-04-15 15:35:00,58.2,54.0,29.84,West,270,0.0,-999.0,87,-99.99,,,0.07,weatherlink.com 1.10,2013-04-15 20:35:00,
2013-04-15 15:50:00,56.1,51.0,29.84,WNW,300,0.0,-999.0,84,-99.99,,,0.09,weatherlink.com 1.10,2013-04-15 20:50:00,
2013-04-15 16:05:00,55.6,51.0,29.84,WNW,294,0.0,-999.0,83,-99.99,,,0.09,weatherlink.com 1.10,2013-04-15 21:05:00,
2013-04-15 16:20:00,54.9,49.0,29.84,NW,304,0.0,-999.0,81,-99.99,,,0.10,weatherlink.com 1.10,2013-04-15 21:20:00,
2013-04-15 16:35:00,54.1,50.0,29.85,West,270,0.0,-999.0,86,-99.99,,,0.13,weatherlink.com 1.10,2013-04-15 21:35:00,
2013-04-15 16:50:00,53.9,51.0,29.84,WNW,301,0.0,-999.0,88,-99.99,,,0.15,weatherlink.com 1.10,2013-04-15 21:50:00,
2013-04-15 17:05:00,53.8,51.0,29.85,WNW,295,0.0,-999.0,89,-99.99,,,0.20,weatherlink.com 1.10,2013-04-15 22:05:00,
2013-04-15 17:20:00,53.7,51.0,29.85,WNW,282,0.0,-999.0,91,-99.99,,,0.24,weatherlink.com 1.10,2013-04-15 22:20:00,
2013-04-15 17:35:00,53.9,52.0,29.86,West,270,0.0,-999.0,92,-99.99,,,0.26,weatherlink.com 1.10,2013-04-15 22:35:00,
2013-04-15 17:50:00,54.1,52.0,29.86,NW,304,0.0,-999.0,93,-99.99,,,0.27,weatherlink.com 1.10,2013-04-15 22:50:00,
2013-04-15 18:05:00,54.0,52.0,29.84,North,5,0.0,-999.0,92,-99.99,,,0.28,weatherlink.com 1.10,2013-04-15 23:05:00,
2013-04-15 18:20:00,53.9,51.0,29.84,North,355,0.0,-999.0,91,-99.99,,,0.28,weatherlink.com 1.10,2013-04-15 23:20:00,
2013-04-15 18:35:00,53.1,49.0,29.86,North,5,0.0,-999.0,86,-99.99,,,0.29,weatherlink.com 1.10,2013-04-15 23:35:00,
2013-04-15 18:50:00,52.0,48.0,29.85,NNW,344,0.0,-999.0,86,-99.99,,,0.30,weatherlink.com 1.10,2013-04-15 23:50:00,
2013-04-15 19:05:00,49.9,46.0,29.86,North,360,0.0,-999.0,86,-99.99,,,0.30,weatherlink.com 1.10,2013-04-16 00:05:00,
2013-04-15 19:20:00,49.4,46.0,29.89,North,360,0.0,-999.0,88,-99.99,,,0.30,weatherlink.com 1.10,2013-04-16 00:20:00,
2013-04-15 19:35:00,48.7,45.0,29.89,North,5,0.0,-999.0,88,-99.99,,,0.30,weatherlink.com 1.10,2013-04-16 00:35:00,
2013-04-15 19:50:00,48.0,45.0,29.89,North,355,0.0,-999.0,88,-99.99,,,0.31,weatherlink.com 1.10,2013-04-16 00:50:00,
2013-04-15 20:05:00,47.4,44.0,29.89,North,360,0.0,-999.0,89,-99.99,,,0.31,weatherlink.com 1.10,2013-04-16 01:05:00,
2013-04-15 20:20:00,47.2,45.0,29.90,North,9,0.0,-999.0,90,-99.99,,,0.31,weatherlink.com 1.10,2013-04-16 01:20:00,
2013-04-15 20:35:00,47.0,45.0,29.90,North,9,0.0,-999.0,91,-99.99,,,0.32,weatherlink.com 1.10,2013-04-16 01:35:00,
2013-04-15 20:50:00,47.0,45.0,29.92,North,9,0.0,-999.0,92,-99.99,,,0.33,weatherlink.com 1.10,2013-04-16 01:50:00,
2013-04-15 21:05:00,46.9,45.0,29.93,North,9,0.0,-999.0,92,-99.99,,,0.33,weatherlink.com 1.10,2013-04-16 02:05:00,
2013-04-15 21:20:00,47.0,45.0,29.93,North,9,0.0,-999.0,93,-99.99,,,0.34,weatherlink.com 1.10,2013-04-16 02:20:00,
2013-04-15 21:35:00,47.1,45.0,29.94,North,9,0.0,-999.0,93,-99.99,,,0.34,weatherlink.com 1.10,2013-04-16 02:35:00,
2013-04-15 21:50:00,47.1,45.0,29.93,North,9,0.0,-999.0,93,-99.99,,,0.34,weatherlink.com 1.10,2013-04-16 02:50:00,
2013-04-15 22:05:00,47.3,46.0,29.95,North,9,0.0,-999.0,94,-99.99,,,0.34,weatherlink.com 1.10,2013-04-16 03:05:00,
2013-04-15 22:20:00,47.4,46.0,29.96,NNW,341,0.0,-999.0,94,-99.99,,,0.34,weatherlink.com 1.10,2013-04-16 03:20:00,
2013-04-15 22:35:00,47.4,46.0,29.96,NNW,341,0.0,-999.0,94,-99.99,,,0.34,weatherlink.com 1.10,2013-04-16 03:35:00,
2013-04-15 22:50:00,47.4,46.0,29.98,NW,321,0.0,-999.0,94,-99.99,,,0.34,weatherlink.com 1.10,2013-04-16 03:50:00,
2013-04-15 23:05:00,47.4,46.0,29.98,NNW,347,0.0,-999.0,94,-99.99,,,0.40,weatherlink.com 1.10,2013-04-16 04:05:00,
2013-04-15 23:20:00,46.2,44.0,29.96,North,349,0.0,-999.0,92,-99.99,,,0.40,weatherlink.com 1.10,2013-04-16 04:20:00,
2013-04-15 23:35:00,46.0,44.0,29.95,North,355,0.0,-999.0,91,-99.99,,,0.40,weatherlink.com 1.10,2013-04-16 04:35:00,
2013-04-15 23:50:00,45.7,43.0,29.95,North,350,0.0,-999.0,91,-99.99,,,0.40,weatherlink.com 1.10,2013-04-16 04:50:00,